Time,TemperatureF,DewpointF,PressureIn,WindDirection,WindDirectionDegrees,WindSpeedMPH,WindSpeedGustMPH,Humidity,HourlyPrecipIn,Conditions,Clouds,dailyrainin,SoftwareType,DateUTC
2013-06-04 00:02:00,64.4,58.1,29.87,South,181,4.0,4.0,80,0.00,,,0.00,Wunderground v.1.15,2013-06-04 07:02:00,
2013-06-04 00:12:00,64.4,58.1,29.87,SSE,155,3.0,4.0,80,0.00,,,0.00,Wunderground v.1.15,2013-06-04 07:12:00,
2013-06-04 00:17:00,64.3,58.0,29.87,South,175,3.0,4.0,80,0.00,,,0.00,Wunderground v.1.15,2013-06-04 07:17:00,
2013-06-04 00:27:00,64.1,57.8,29.87,South,182,3.0,3.0,80,0.00,,,0.00,Wunderground v.1.15,2013-06-04 07:27:00,
2013-06-04 00:37:00,64.1,57.8,29.87,South,186,3.0,4.0,80,0.00,,,0.00,Wunderground v.1.15,2013-06-04 07:37:00,
2013-06-04 00:42:00,64.0,57.7,29.87,SSW,192,3.0,3.0,80,0.00,,,0.00,Wunderground v.1.15,2013-06-04 07:42:00,
2013-06-04 00:52:00,64.0,57.7,29.87,South,181,3.0,3.0,80,0.00,,,0.00,Wunderground v.1.15,2013-06-04 07:52:00,
2013-06-04 00:57:00,64.0,58.1,29.87,SSW,209,3.0,3.0,81,0.00,,,0.00,Wunderground v.1.15,2013-06-04 07:57:00,
2013-06-04 01:07:00,63.9,58.0,29.87,SSW,198,3.0,4.0,81,0.00,,,0.00,Wunderground v.1.15,2013-06-04 08:07:00,
2013-06-04 01:12:00,63.9,58.0,29.87,South,182,3.0,3.0,81,0.00,,,0.00,Wunderground v.1.15,2013-06-04 08:12:00,
2013-06-04 01:22:00,63.8,57.9,29.87,SSW,194,3.0,3.0,81,0.00,,,0.00,Wunderground v.1.15,2013-06-04 08:22:00,
2013-06-04 01:32:00,63.6,57.7,29.87,South,171,3.0,4.0,81,0.00,,,0.00,Wunderground v.1.15,2013-06-04 08:32:00,
2013-06-04 01:42:00,63.6,57.7,29.87,SSE,155,3.0,5.0,81,0.00,,,0.00,Wunderground v.1.15,2013-06-04 08:42:00,
2013-06-04 01:52:00,63.6,57.7,29.87,SW,220,3.0,3.0,81,0.00,,,0.00,Wunderground v.1.15,2013-06-04 08:52:00,
2013-06-04 02:02:00,63.5,57.6,29.87,SSW,199,2.0,2.0,81,0.00,,,0.00,Wunderground v.1.15,2013-06-04 09:02:00,
2013-06-04 02:12:00,63.4,57.8,29.87,SE,135,2.0,2.0,82,0.00,,,0.00,Wunderground v.1.15,2013-06-04 09:12:00,
2013-06-04 02:22:00,63.3,57.7,29.87,SSE,165,2.0,2.0,82,0.00,,,0.00,Wunderground v.1.15,2013-06-04 09:22:00,
2013-06-04 02:32:00,63.2,57.6,29.87,South,189,3.0,3.0,82,0.00,,,0.00,Wunderground v.1.15,2013-06-04 09:32:00,
2013-06-04 02:42:00,63.1,57.5,29.87,SSE,161,3.0,3.0,82,0.00,,,0.00,Wunderground v.1.15,2013-06-04 09:42:00,
2013-06-04 02:47:00,63.1,57.5,29.86,South,173,3.0,3.0,82,0.00,,,0.00,Wunderground v.1.15,2013-06-04 09:47:00,
2013-06-04 02:52:00,63.0,57.4,29.87,SSW,201,3.0,4.0,82,0.00,,,0.00,Wunderground v.1.15,2013-06-04 09:52:00,
2013-06-04 03:02:00,62.9,57.7,29.86,SE,142,3.0,3.0,83,0.00,,,0.00,Wunderground v.1.15,2013-06-04 10:02:00,
2013-06-04 03:07:00,62.9,57.7,29.86,South,178,2.0,3.0,83,0.00,,,0.00,Wunderground v.1.15,2013-06-04 10:07:00,
2013-06-04 03:17:00,62.7,57.5,29.86,South,174,3.0,3.0,83,0.00,,,0.00,Wunderground v.1.15,2013-06-04 10:17:00,
2013-06-04 03:27:00,62.7,57.5,29.86,South,183,3.0,4.0,83,0.00,,,0.00,Wunderground v.1.15,2013-06-04 10:27:00,
2013-06-04 03:37:00,62.7,57.5,29.86,South,174,3.0,3.0,83,0.00,,,0.00,Wunderground v.1.15,2013-06-04 10:37:00,
2013-06-04 03:42:00,62.7,57.5,29.87,SSE,151,2.0,2.0,83,0.00,,,0.00,Wunderground v.1.15,2013-06-04 10:42:00,
2013-06-04 03:47:00,62.7,57.5,29.87,SSW,207,2.0,3.0,83,0.00,,,0.00,Wunderground v.1.15,2013-06-04 10:47:00,
2013-06-04 03:57:00,62.5,57.3,29.87,SE,144,2.0,3.0,83,0.00,,,0.00,Wunderground v.1.15,2013-06-04 10:57:00,
2013-06-04 04:07:00,62.5,57.3,29.87,SE,136,3.0,4.0,83,0.00,,,0.00,Wunderground v.1.15,2013-06-04 11:07:00,
2013-06-04 04:12:00,62.5,57.3,29.87,South,177,3.0,4.0,83,0.00,,,0.00,Wunderground v.1.15,2013-06-04 11:12:00,
2013-06-04 04:22:00,62.6,57.4,29.87,SSW,194,3.0,3.0,83,0.00,,,0.00,Wunderground v.1.15,2013-06-04 11:22:00,
2013-06-04 04:27:00,62.6,57.4,29.87,SSE,150,2.0,3.0,83,0.00,,,0.00,Wunderground v.1.15,2013-06-04 11:27:00,
2013-06-04 04:32:00,62.6,57.4,29.88,SSW,207,2.0,4.0,83,0.00,,,0.00,Wunderground v.1.15,2013-06-04 11:32:00,
2013-06-04 04:42:00,62.5,57.6,29.88,South,181,1.0,2.0,84,0.00,,,0.00,Wunderground v.1.15,2013-06-04 11:42:00,
2013-06-04 04:47:00,62.5,57.6,29.88,South,186,2.0,2.0,84,0.00,,,0.00,Wunderground v.1.15,2013-06-04 11:47:00,
2013-06-04 04:52:00,62.4,57.5,29.88,South,186,2.0,2.0,84,0.00,,,0.00,Wunderground v.1.15,2013-06-04 11:52:00,
2013-06-04 05:02:00,62.4,57.5,29.88,SSE,157,2.0,4.0,84,0.00,,,0.00,Wunderground v.1.15,2013-06-04 12:02:00,
2013-06-04 05:12:00,62.5,57.6,29.88,SSW,199,2.0,2.0,84,0.00,,,0.00,Wunderground v.1.15,2013-06-04 12:12:00,
2013-06-04 05:17:00,62.6,57.4,29.88,SSW,199,1.0,2.0,83,0.00,,,0.00,Wunderground v.1.15,2013-06-04 12:17:00,
2013-06-04 05:22:00,62.6,57.4,29.88,SSW,199,1.0,2.0,83,0.00,,,0.00,Wunderground v.1.15,2013-06-04 12:22:00,
2013-06-04 05:27:00,62.6,57.4,29.88,SSW,199,1.0,2.0,83,0.00,,,0.00,Wunderground v.1.15,2013-06-04 12:27:00,
2013-06-04 05:32:00,62.6,57.4,29.88,SSW,199,1.0,1.0,83,0.00,,,0.00,Wunderground v.1.15,2013-06-04 12:32:00,
2013-06-04 05:37:00,62.7,57.5,29.88,SSW,199,1.0,4.0,83,0.00,,,0.00,Wunderground v.1.15,2013-06-04 12:37:00,
2013-06-04 05:47:00,62.6,57.4,29.89,South,169,3.0,4.0,83,0.00,,,0.00,Wunderground v.1.15,2013-06-04 12:47:00,
2013-06-04 05:52:00,62.6,57.4,29.89,SSW,197,2.0,2.0,83,0.00,,,0.00,Wunderground v.1.15,2013-06-04 12:52:00,
2013-06-04 05:57:00,62.6,57.7,29.89,South,188,2.0,2.0,84,0.00,,,0.00,Wunderground v.1.15,2013-06-04 12:57:00,
2013-06-04 06:07:00,62.5,57.6,29.89,WSW,240,1.0,2.0,84,0.00,,,0.00,Wunderground v.1.15,2013-06-04 13:07:00,
2013-06-04 06:12:00,62.5,57.6,29.89,SW,215,2.0,2.0,84,0.00,,,0.00,Wunderground v.1.15,2013-06-04 13:12:00,
2013-06-04 06:17:00,62.5,57.6,29.89,South,172,2.0,2.0,84,0.00,,,0.00,Wunderground v.1.15,2013-06-04 13:17:00,
2013-06-04 06:27:00,62.5,57.6,29.89,SW,229,1.0,2.0,84,0.00,,,0.00,Wunderground v.1.15,2013-06-04 13:27:00,
2013-06-04 06:32:00,62.5,57.6,29.89,SW,229,1.0,1.0,84,0.00,,,0.00,Wunderground v.1.15,2013-06-04 13:32:00,
2013-06-04 06:37:00,62.5,57.6,29.89,SSE,163,2.0,2.0,84,0.00,,,0.00,Wunderground v.1.15,2013-06-04 13:37:00,
2013-06-04 06:42:00,62.5,57.6,29.89,SW,233,2.0,2.0,84,0.00,,,0.00,Wunderground v.1.15,2013-06-04 13:42:00,
2013-06-04 06:52:00,62.5,57.6,29.89,SW,233,2.0,2.0,84,0.00,,,0.00,Wunderground v.1.15,2013-06-04 13:52:00,
2013-06-04 06:57:00,62.6,57.7,29.90,SW,233,2.0,2.0,84,0.00,,,0.00,Wunderground v.1.15,2013-06-04 13:57:00,
2013-06-04 07:07:00,62.8,57.6,29.90,SW,233,1.0,1.0,83,0.00,,,0.00,Wunderground v.1.15,2013-06-04 14:07:00,
2013-06-04 07:12:00,62.9,57.7,29.90,SSE,157,1.0,2.0,83,0.00,,,0.00,Wunderground v.1.15,2013-06-04 14:12:00,
2013-06-04 07:17:00,62.9,57.7,29.90,SSE,156,1.0,2.0,83,0.00,,,0.00,Wunderground v.1.15,2013-06-04 14:17:00,
2013-06-04 07:22:00,62.9,57.7,29.90,ESE,117,1.0,1.0,83,0.00,,,0.00,Wunderground v.1.15,2013-06-04 14:22:00,
2013-06-04 07:32:00,63.0,57.8,29.90,SSE,157,1.0,1.0,83,0.00,,,0.00,Wunderground v.1.15,2013-06-04 14:32:00,
2013-06-04 07:37:00,63.1,57.5,29.90,SSE,157,1.0,1.0,82,0.00,,,0.00,Wunderground v.1.15,2013-06-04 14:37:00,
2013-06-04 07:47:00,63.1,57.5,29.91,SSW,196,1.0,1.0,82,0.00,,,0.00,Wunderground v.1.15,2013-06-04 14:47:00,
2013-06-04 07:57:00,63.1,57.5,29.91,South,186,2.0,2.0,82,0.00,,,0.00,Wunderground v.1.15,2013-06-04 14:57:00,
2013-06-04 08:02:00,63.2,57.6,29.91,South,186,1.0,2.0,82,0.00,,,0.00,Wunderground v.1.15,2013-06-04 15:02:00,
2013-06-04 08:07:00,63.4,57.8,29.91,South,186,1.0,2.0,82,0.00,,,0.00,Wunderground v.1.15,2013-06-04 15:07:00,
2013-06-04 08:12:00,63.6,58.0,29.91,SE,141,1.0,1.0,82,0.00,,,0.00,Wunderground v.1.15,2013-06-04 15:12:00,
2013-06-04 08:22:00,63.8,57.9,29.92,SE,128,2.0,2.0,81,0.00,,,0.00,Wunderground v.1.15,2013-06-04 15:22:00,
2013-06-04 08:27:00,63.8,57.9,29.92,South,180,2.0,3.0,81,0.00,,,0.00,Wunderground v.1.15,2013-06-04 15:27:00,
2013-06-04 08:37:00,64.0,58.1,29.92,South,173,3.0,3.0,81,0.00,,,0.00,Wunderground v.1.15,2013-06-04 15:37:00,
2013-06-04 08:42:00,64.0,58.1,29.92,South,173,2.0,2.0,81,0.00,,,0.00,Wunderground v.1.15,2013-06-04 15:42:00,
2013-06-04 08:47:00,64.1,58.1,29.92,ESE,113,2.0,2.0,81,0.00,,,0.00,Wunderground v.1.15,2013-06-04 15:47:00,
2013-06-04 08:52:00,64.2,57.9,29.92,SSE,155,2.0,2.0,80,0.00,,,0.00,Wunderground v.1.15,2013-06-04 15:52:00,
2013-06-04 08:57:00,64.3,58.0,29.92,SSE,165,2.0,5.0,80,0.00,,,0.00,Wunderground v.1.15,2013-06-04 15:57:00,
2013-06-04 09:07:00,64.4,58.1,29.93,SSE,160,2.0,2.0,80,0.00,,,0.00,Wunderground v.1.15,2013-06-04 16:07:00,
2013-06-04 09:12:00,64.5,57.8,29.93,SSE,163,2.0,2.0,79,0.00,,,0.00,Wunderground v.1.15,2013-06-04 16:12:00,
2013-06-04 09:22:00,64.7,58.0,29.93,SSW,208,1.0,5.0,79,0.00,,,0.00,Wunderground v.1.15,2013-06-04 16:22:00,
2013-06-04 09:27:00,64.8,58.1,29.93,South,183,2.0,5.0,79,0.00,,,0.00,Wunderground v.1.15,2013-06-04 16:27:00,
2013-06-04 09:37:00,65.0,58.3,29.92,SSW,194,1.0,3.0,79,0.00,,,0.00,Wunderground v.1.15,2013-06-04 16:37:00,
2013-06-04 09:42:00,65.2,58.5,29.93,South,169,1.0,3.0,79,0.00,,,0.00,Wunderground v.1.15,2013-06-04 16:42:00,
2013-06-04 09:47:00,65.4,58.7,29.93,SSW,208,2.0,3.0,79,0.00,,,0.00,Wunderground v.1.15,2013-06-04 16:47:00,
2013-06-04 09:57:00,65.3,58.3,29.93,South,189,3.0,3.0,78,0.00,,,0.00,Wunderground v.1.15,2013-06-04 16:57:00,
2013-06-04 10:02:00,65.3,58.3,29.93,South,188,3.0,3.0,78,0.00,,,0.00,Wunderground v.1.15,2013-06-04 17:02:00,
2013-06-04 10:12:00,65.4,58.4,29.93,South,184,2.0,3.0,78,0.00,,,0.00,Wunderground v.1.15,2013-06-04 17:12:00,
2013-06-04 10:22:00,65.4,58.0,29.93,SW,227,2.0,2.0,77,0.00,,,0.00,Wunderground v.1.15,2013-06-04 17:22:00,
2013-06-04 10:27:00,65.6,58.6,29.93,SW,223,1.0,2.0,78,0.00,,,0.00,Wunderground v.1.15,2013-06-04 17:27:00,
2013-06-04 10:32:00,65.7,58.3,29.93,South,180,1.0,2.0,77,0.00,,,0.00,Wunderground v.1.15,2013-06-04 17:32:00,
2013-06-04 10:42:00,65.9,58.5,29.93,South,190,2.0,2.0,77,0.00,,,0.00,Wunderground v.1.15,2013-06-04 17:42:00,
2013-06-04 10:47:00,65.9,58.1,29.93,South,175,2.0,2.0,76,0.00,,,0.00,Wunderground v.1.15,2013-06-04 17:47:00,
2013-06-04 10:52:00,66.0,58.2,29.93,SSW,196,1.0,2.0,76,0.00,,,0.00,Wunderground v.1.15,2013-06-04 17:52:00,
2013-06-04 10:57:00,66.0,58.2,29.93,SSW,193,1.0,2.0,76,0.00,,,0.00,Wunderground v.1.15,2013-06-04 17:57:00,
2013-06-04 11:07:00,65.9,58.1,29.93,ESE,111,2.0,3.0,76,0.00,,,0.00,Wunderground v.1.15,2013-06-04 18:07:00,
2013-06-04 11:12:00,66.0,58.6,29.94,ESE,119,1.0,1.0,77,0.00,,,0.00,Wunderground v.1.15,2013-06-04 18:12:00,
2013-06-04 11:17:00,66.2,58.4,29.93,ESE,119,1.0,1.0,76,0.00,,,0.00,Wunderground v.1.15,2013-06-04 18:17:00,
2013-06-04 11:27:00,66.8,58.6,29.93,South,174,2.0,2.0,75,0.00,,,0.00,Wunderground v.1.15,2013-06-04 18:27:00,
2013-06-04 11:32:00,66.8,58.6,29.93,SW,216,3.0,3.0,75,0.00,,,0.00,Wunderground v.1.15,2013-06-04 18:32:00,
2013-06-04 11:42:00,67.0,58.8,29.93,SE,125,3.0,3.0,75,0.00,,,0.00,Wunderground v.1.15,2013-06-04 18:42:00,
2013-06-04 11:47:00,67.1,58.5,29.93,SW,215,3.0,3.0,74,0.00,,,0.00,Wunderground v.1.15,2013-06-04 18:47:00,
2013-06-04 11:57:00,67.3,58.7,29.93,SSW,202,3.0,3.0,74,0.00,,,0.00,Wunderground v.1.15,2013-06-04 18:57:00,
2013-06-04 12:07:00,67.8,58.8,29.93,South,170,2.0,3.0,73,0.00,,,0.00,Wunderground v.1.15,2013-06-04 19:07:00,
2013-06-04 12:12:00,68.0,59.0,29.93,South,183,2.0,3.0,73,0.00,,,0.00,Wunderground v.1.15,2013-06-04 19:12:00,
2013-06-04 12:22:00,69.1,59.3,29.93,SSW,207,2.0,2.0,71,0.00,,,0.00,Wunderground v.1.15,2013-06-04 19:22:00,
2013-06-04 12:32:00,69.0,58.8,29.93,SSE,151,3.0,3.0,70,0.00,,,0.00,Wunderground v.1.15,2013-06-04 19:32:00,
2013-06-04 12:42:00,69.5,58.5,29.93,SSW,202,2.0,2.0,68,0.00,,,0.00,Wunderground v.1.15,2013-06-04 19:42:00,
2013-06-04 12:47:00,70.1,59.5,29.92,SSW,198,2.0,2.0,69,0.00,,,0.00,Wunderground v.1.15,2013-06-04 19:47:00,
2013-06-04 12:57:00,70.0,59.0,29.92,SSW,202,3.0,3.0,68,0.00,,,0.00,Wunderground v.1.15,2013-06-04 19:57:00,
2013-06-04 13:07:00,70.7,58.8,29.92,North,351,2.0,2.0,66,0.00,,,0.00,Wunderground v.1.15,2013-06-04 20:07:00,
2013-06-04 13:12:00,71.1,58.7,29.92,South,184,2.0,5.0,65,0.00,,,0.00,Wunderground v.1.15,2013-06-04 20:12:00,
2013-06-04 13:17:00,71.1,58.3,29.92,WSW,250,3.0,5.0,64,0.00,,,0.00,Wunderground v.1.15,2013-06-04 20:17:00,
2013-06-04 13:27:00,71.5,58.7,29.92,SW,224,2.0,3.0,64,0.00,,,0.00,Wunderground v.1.15,2013-06-04 20:27:00,
2013-06-04 13:37:00,72.3,59.0,29.91,SW,214,3.0,3.0,63,0.00,,,0.00,Wunderground v.1.15,2013-06-04 20:37:00,
2013-06-04 13:47:00,73.7,58.9,29.91,WSW,245,3.0,5.0,60,0.00,,,0.00,Wunderground v.1.15,2013-06-04 20:47:00,
2013-06-04 13:52:00,73.4,58.7,29.91,East,92,3.0,3.0,60,0.00,,,0.00,Wunderground v.1.15,2013-06-04 20:52:00,
2013-06-04 13:57:00,73.6,59.3,29.90,NE,49,2.0,3.0,61,0.00,,,0.00,Wunderground v.1.15,2013-06-04 20:57:00,
2013-06-04 14:02:00,73.9,59.6,29.90,SSW,204,2.0,3.0,61,0.00,,,0.00,Wunderground v.1.15,2013-06-04 21:02:00,
2013-06-04 14:07:00,74.6,59.3,29.90,West,269,2.0,7.0,59,0.00,,,0.00,Wunderground v.1.15,2013-06-04 21:07:00,
2013-06-04 14:12:00,74.7,59.4,29.90,WNW,285,3.0,3.0,59,0.00,,,0.00,Wunderground v.1.15,2013-06-04 21:12:00,
2013-06-04 14:22:00,74.8,59.0,29.90,NNE,22,3.0,3.0,58,0.00,,,0.00,Wunderground v.1.15,2013-06-04 21:22:00,
2013-06-04 14:32:00,75.2,58.9,29.90,WNW,300,3.0,3.0,57,0.00,,,0.00,Wunderground v.1.15,2013-06-04 21:32:00,
2013-06-04 14:37:00,75.0,58.2,29.89,SW,227,4.0,7.0,56,0.00,,,0.00,Wunderground v.1.15,2013-06-04 21:37:00,
2013-06-04 14:42:00,75.0,58.7,29.89,SSW,197,5.0,5.0,57,0.00,,,0.00,Wunderground v.1.15,2013-06-04 21:42:00,
2013-06-04 14:52:00,75.8,59.5,29.89,West,269,3.0,4.0,57,0.00,,,0.00,Wunderground v.1.15,2013-06-04 21:52:00,
2013-06-04 14:57:00,76.7,59.3,29.89,WSW,238,2.0,4.0,55,0.00,,,0.00,Wunderground v.1.15,2013-06-04 21:57:00,
2013-06-04 15:07:00,76.6,59.7,29.89,SW,215,4.0,4.0,56,0.00,,,0.00,Wunderground v.1.15,2013-06-04 22:07:00,
2013-06-04 15:12:00,76.2,59.4,29.89,SW,215,5.0,6.0,56,0.00,,,0.00,Wunderground v.1.15,2013-06-04 22:12:00,
2013-06-04 15:22:00,76.0,59.2,29.88,WSW,245,5.0,5.0,56,0.00,,,0.00,Wunderground v.1.15,2013-06-04 22:22:00,
2013-06-04 15:27:00,76.3,58.9,29.88,SSE,156,4.0,5.0,55,0.00,,,0.00,Wunderground v.1.15,2013-06-04 22:27:00,
2013-06-04 15:37:00,77.4,58.9,29.88,WSW,248,3.0,5.0,53,0.00,,,0.00,Wunderground v.1.15,2013-06-04 22:37:00,
2013-06-04 15:42:00,77.3,59.4,29.88,SW,214,5.0,6.0,54,0.00,,,0.00,Wunderground v.1.15,2013-06-04 22:42:00,
2013-06-04 15:47:00,77.6,59.6,29.88,WSW,246,4.0,6.0,54,0.00,,,0.00,Wunderground v.1.15,2013-06-04 22:47:00,
2013-06-04 15:52:00,77.5,59.5,29.87,SW,220,3.0,9.0,54,0.00,,,0.00,Wunderground v.1.15,2013-06-04 22:52:00,
2013-06-04 15:57:00,77.4,59.5,29.87,South,182,4.0,9.0,54,0.00,,,0.00,Wunderground v.1.15,2013-06-04 22:57:00,
2013-06-04 16:07:00,77.2,59.8,29.87,SE,136,5.0,5.0,55,0.00,,,0.00,Wunderground v.1.15,2013-06-04 23:07:00,
2013-06-04 16:17:00,77.1,59.7,29.87,WSW,248,6.0,7.0,55,0.00,,,0.00,Wunderground v.1.15,2013-06-04 23:17:00,
2013-06-04 16:22:00,76.9,60.0,29.87,WSW,237,6.0,10.0,56,0.00,,,0.00,Wunderground v.1.15,2013-06-04 23:22:00,
2013-06-04 16:27:00,76.4,60.0,29.86,SSW,194,7.0,10.0,57,0.00,,,0.00,Wunderground v.1.15,2013-06-04 23:27:00,
2013-06-04 16:37:00,75.7,59.4,29.86,South,190,6.0,7.0,57,0.00,,,0.00,Wunderground v.1.15,2013-06-04 23:37:00,
2013-06-04 16:47:00,75.7,59.9,29.86,SSW,213,5.0,6.0,58,0.00,,,0.00,Wunderground v.1.15,2013-06-04 23:47:00,
2013-06-04 16:52:00,75.8,59.5,29.86,SE,146,5.0,5.0,57,0.00,,,0.00,Wunderground v.1.15,2013-06-04 23:52:00,
2013-06-04 17:02:00,75.6,59.8,29.86,SSW,198,6.0,6.0,58,0.00,,,0.00,Wunderground v.1.15,2013-06-05 00:02:00,
2013-06-04 17:07:00,75.3,60.0,29.86,SSE,167,5.0,7.0,59,0.00,,,0.00,Wunderground v.1.15,2013-06-05 00:07:00,
2013-06-04 17:12:00,75.2,59.9,29.86,WSW,248,5.0,6.0,59,0.00,,,0.00,Wunderground v.1.15,2013-06-05 00:12:00,
2013-06-04 17:17:00,75.2,59.4,29.86,WSW,238,4.0,6.0,58,0.00,,,0.00,Wunderground v.1.15,2013-06-05 00:17:00,
2013-06-04 17:22:00,75.3,59.5,29.86,SSW,208,4.0,4.0,58,0.00,,,0.00,Wunderground v.1.15,2013-06-05 00:22:00,
2013-06-04 17:27:00,75.5,59.7,29.87,West,273,5.0,5.0,58,0.00,,,0.00,Wunderground v.1.15,2013-06-05 00:27:00,
2013-06-04 17:37:00,75.2,59.9,29.86,NW,322,4.0,6.0,59,0.00,,,0.00,Wunderground v.1.15,2013-06-05 00:37:00,
2013-06-04 17:47:00,74.3,59.5,29.87,SW,219,5.0,6.0,60,0.00,,,0.00,Wunderground v.1.15,2013-06-05 00:47:00,
2013-06-04 17:52:00,74.0,59.7,29.87,WSW,246,5.0,5.0,61,0.00,,,0.00,Wunderground v.1.15,2013-06-05 00:52:00,
2013-06-04 17:57:00,73.9,59.6,29.87,West,261,4.0,5.0,61,0.00,,,0.00,Wunderground v.1.15,2013-06-05 00:57:00,
2013-06-04 18:07:00,72.5,59.2,29.87,WNW,284,6.0,6.0,63,0.00,,,0.00,Wunderground v.1.15,2013-06-05 01:07:00,
2013-06-04 18:17:00,72.1,59.2,29.87,West,280,5.0,6.0,64,0.00,,,0.00,Wunderground v.1.15,2013-06-05 01:17:00,
2013-06-04 18:27:00,71.8,59.4,29.88,West,277,5.0,6.0,65,0.00,,,0.00,Wunderground v.1.15,2013-06-05 01:27:00,
2013-06-04 18:32:00,71.8,59.0,29.88,West,279,4.0,4.0,64,0.00,,,0.00,Wunderground v.1.15,2013-06-05 01:32:00,
2013-06-04 18:37:00,71.7,58.9,29.88,SW,223,4.0,4.0,64,0.00,,,0.00,Wunderground v.1.15,2013-06-05 01:37:00,
2013-06-04 18:42:00,71.1,59.2,29.89,WSW,247,5.0,8.0,66,0.00,,,0.00,Wunderground v.1.15,2013-06-05 01:42:00,
2013-06-04 18:52:00,70.0,59.0,29.89,West,259,6.0,6.0,68,0.00,,,0.00,Wunderground v.1.15,2013-06-05 01:52:00,
2013-06-04 18:57:00,69.9,59.3,29.89,SSW,209,6.0,6.0,69,0.00,,,0.00,Wunderground v.1.15,2013-06-05 01:57:00,
2013-06-04 19:07:00,69.2,59.0,29.90,SSW,208,5.0,5.0,70,0.00,,,0.00,Wunderground v.1.15,2013-06-05 02:07:00,
2013-06-04 19:17:00,68.6,58.8,29.90,SE,128,5.0,5.0,71,0.00,,,0.00,Wunderground v.1.15,2013-06-05 02:17:00,
2013-06-04 19:22:00,68.2,58.8,29.90,SW,229,5.0,5.0,72,0.00,,,0.00,Wunderground v.1.15,2013-06-05 02:22:00,
2013-06-04 19:27:00,68.0,59.0,29.91,West,273,4.0,5.0,73,0.00,,,0.00,Wunderground v.1.15,2013-06-05 02:27:00,
2013-06-04 19:37:00,67.2,59.0,29.91,WNW,293,5.0,5.0,75,0.00,,,0.00,Wunderground v.1.15,2013-06-05 02:37:00,
2013-06-04 19:42:00,66.8,58.6,29.91,SW,229,5.0,5.0,75,0.00,,,0.00,Wunderground v.1.15,2013-06-05 02:42:00,
2013-06-04 19:52:00,66.2,58.4,29.91,SW,226,4.0,4.0,76,0.00,,,0.00,Wunderground v.1.15,2013-06-05 02:52:00,
2013-06-04 19:57:00,66.0,58.6,29.92,SW,223,4.0,6.0,77,0.00,,,0.00,Wunderground v.1.15,2013-06-05 02:57:00,
2013-06-04 20:02:00,65.7,58.3,29.92,SW,236,4.0,4.0,77,0.00,,,0.00,Wunderground v.1.15,2013-06-05 03:02:00,
2013-06-04 20:12:00,65.3,58.6,29.92,SW,231,3.0,6.0,79,0.00,,,0.00,Wunderground v.1.15,2013-06-05 03:12:00,
2013-06-04 20:17:00,65.1,58.4,29.92,West,267,4.0,6.0,79,0.00,,,0.00,Wunderground v.1.15,2013-06-05 03:17:00,
2013-06-04 20:22:00,64.8,58.1,29.92,WNW,287,4.0,4.0,79,0.00,,,0.00,Wunderground v.1.15,2013-06-05 03:22:00,
2013-06-04 20:27:00,64.6,57.9,29.92,West,277,3.0,4.0,79,0.00,,,0.00,Wunderground v.1.15,2013-06-05 03:27:00,
2013-06-04 20:37:00,64.4,58.1,29.92,SW,226,3.0,6.0,80,0.00,,,0.00,Wunderground v.1.15,2013-06-05 03:37:00,
2013-06-04 20:47:00,64.4,58.1,29.92,WSW,248,4.0,4.0,80,0.00,,,0.00,Wunderground v.1.15,2013-06-05 03:47:00,
2013-06-04 20:52:00,64.3,58.0,29.92,West,269,3.0,3.0,80,0.00,,,0.00,Wunderground v.1.15,2013-06-05 03:52:00,
2013-06-04 21:02:00,64.0,58.1,29.92,West,272,2.0,2.0,81,0.00,,,0.00,Wunderground v.1.15,2013-06-05 04:02:00,
2013-06-04 21:07:00,63.9,58.3,29.92,West,265,2.0,2.0,82,0.00,,,0.00,Wunderground v.1.15,2013-06-05 04:07:00,
2013-06-04 21:12:00,63.8,58.2,29.93,West,262,2.0,4.0,82,0.00,,,0.00,Wunderground v.1.15,2013-06-05 04:12:00,
2013-06-04 21:17:00,63.8,58.2,29.92,WNW,292,2.0,4.0,82,0.00,,,0.00,Wunderground v.1.15,2013-06-05 04:17:00,
2013-06-04 21:22:00,63.8,58.2,29.92,SW,233,2.0,2.0,82,0.00,,,0.00,Wunderground v.1.15,2013-06-05 04:22:00,
2013-06-04 21:32:00,63.8,58.2,29.93,West,262,2.0,2.0,82,0.00,,,0.00,Wunderground v.1.15,2013-06-05 04:32:00,
2013-06-04 21:42:00,63.8,58.2,29.93,WNW,284,2.0,3.0,82,0.00,,,0.00,Wunderground v.1.15,2013-06-05 04:42:00,
2013-06-04 21:47:00,63.7,58.1,29.93,WNW,288,2.0,3.0,82,0.00,,,0.00,Wunderground v.1.15,2013-06-05 04:47:00,
2013-06-04 21:57:00,63.8,58.2,29.93,SW,221,2.0,2.0,82,0.00,,,0.00,Wunderground v.1.15,2013-06-05 04:57:00,
2013-06-04 22:02:00,63.7,58.1,29.93,WNW,291,2.0,2.0,82,0.00,,,0.00,Wunderground v.1.15,2013-06-05 05:02:00,
2013-06-04 22:07:00,63.6,58.3,29.94,WSW,240,2.0,2.0,83,0.00,,,0.00,Wunderground v.1.15,2013-06-05 05:07:00,
2013-06-04 22:17:00,63.8,58.2,29.94,WSW,255,2.0,4.0,82,0.00,,,0.00,Wunderground v.1.15,2013-06-05 05:17:00,
2013-06-04 22:22:00,63.8,58.2,29.94,SW,232,3.0,5.0,82,0.00,,,0.00,Wunderground v.1.15,2013-06-05 05:22:00,
2013-06-04 22:27:00,63.8,58.2,29.94,West,275,3.0,5.0,82,0.00,,,0.00,Wunderground v.1.15,2013-06-05 05:27:00,
2013-06-04 22:37:00,63.9,58.3,29.94,SW,227,3.0,3.0,82,0.00,,,0.00,Wunderground v.1.15,2013-06-05 05:37:00,
2013-06-04 22:42:00,63.9,58.3,29.95,SW,227,3.0,4.0,82,0.00,,,0.00,Wunderground v.1.15,2013-06-05 05:42:00,
2013-06-04 22:52:00,64.0,58.4,29.95,West,265,2.0,3.0,82,0.00,,,0.00,Wunderground v.1.15,2013-06-05 05:52:00,
2013-06-04 22:57:00,64.0,58.4,29.95,West,263,2.0,3.0,82,0.00,,,0.00,Wunderground v.1.15,2013-06-05 05:57:00,
2013-06-04 23:02:00,63.9,58.3,29.95,SW,227,2.0,3.0,82,0.00,,,0.00,Wunderground v.1.15,2013-06-05 06:02:00,
2013-06-04 23:12:00,63.9,58.3,29.95,SW,233,3.0,4.0,82,0.00,,,0.00,Wunderground v.1.15,2013-06-05 06:12:00,
2013-06-04 23:22:00,63.9,58.3,29.94,WSW,244,2.0,2.0,82,0.00,,,0.00,Wunderground v.1.15,2013-06-05 06:22:00,
2013-06-04 23:27:00,64.0,58.4,29.94,SW,230,2.0,4.0,82,0.00,,,0.00,Wunderground v.1.15,2013-06-05 06:27:00,
2013-06-04 23:37:00,64.0,58.4,29.94,WSW,252,2.0,3.0,82,0.00,,,0.00,Wunderground v.1.15,2013-06-05 06:37:00,
2013-06-04 23:42:00,64.0,58.4,29.94,WNW,294,2.0,2.0,82,0.00,,,0.00,Wunderground v.1.15,2013-06-05 06:42:00,
2013-06-04 23:52:00,63.9,58.3,29.94,SW,221,1.0,3.0,82,0.00,,,0.00,Wunderground v.1.15,2013-06-05 06:52:00,
2013-06-04 23:57:00,64.0,58.4,29.94,West,269,2.0,3.0,82,0.00,,,0.00,Wunderground v.1.15,2013-06-05 06:57:00,